QPF
0.00 0.05 0.12 0.03 0.00 0.00 0.00 0.00 0.00 0.00 0.00 0.00 0.00 0.01 0.03 0.01 0.03 0.03 0.00 0.03 0.05 0.02 0.00 0.00 0.00 0.00 0.00 0.00 0.05 0.04 0.01 0.07 0.10 0.05 0.09 0.09 0.12 0.26 0.28 0.22 0.29 0.15 0.12
0.00 0.00 0.00 0.00 0.00 0.00 0.00 0.00 0.00 0.00 0.00 0.00 0.00 0.02 0.03 0.02 0.04 0.04 0.01 0.03 0.07 0.00 0.00 0.00 0.00 0.00 0.00 0.00 0.01 0.03 0.06 0.07 0.13 0.14 0.17 0.16 0.15 0.11 0.10 0.18 0.22 0.09 0.07
0.00 0.00 0.00 0.00 0.00 0.00 0.00 0.00 0.00 0.00 0.00 0.00 0.00 0.01 0.08 0.11 0.10 0.07 0.06 0.04 0.02 0.00 0.00 0.00 0.00 0.00 0.00 0.00 0.02 0.03 0.06 0.10 0.17 0.17 0.23 0.18 0.17 0.13 0.14 0.16 0.18 0.14 0.05
0.00 0.00 0.00 0.00 0.00 0.00 0.00 0.00 0.00 0.00 0.00 0.00 0.01 0.07 0.12 0.07 0.04 0.02 0.00 0.00 0.00 0.00 0.00 0.00 0.00 0.00 0.00 0.01 0.04 0.05 0.06 0.06 0.32 1.09 1.20 0.51 0.24 0.12 0.09 0.10 0.10 0.07 0.01
0.00 0.00 0.00 0.00 0.00 0.00 0.00 0.00 0.00 0.00 0.00 0.00 0.01 0.02 0.01 0.01 0.00 0.01 0.00 0.01 0.03 0.00 0.00 0.00 0.01 0.01 0.00 0.00 0.00 0.00 0.02 0.07 0.14 0.25 0.49 0.38 0.27 0.17 0.08 0.03 0.02 0.02 0.00
0.00 0.00 0.00 0.00 0.00 0.00 0.00 0.00 0.00 0.00 0.00 0.00 0.01 0.02 0.01 0.01 0.01 0.05 0.03 0.02 0.03 0.01 0.00 0.00 0.00 0.00 0.00 0.00 0.01 0.01 0.06 0.11 0.07 0.05 0.03 0.02 0.01 0.00 0.00 0.00 0.00 0.00 0.00
0.00 0.00 0.00 0.00 0.00 0.00 0.00 0.00 0.00 0.00 0.00 0.01 0.02 0.04 0.03 0.01 0.01 0.04 0.01 0.01 0.02 0.01 0.01 0.01 0.00 0.00 0.00 0.00 0.00 0.00 0.00 0.01 0.00 0.00 0.00 0.00 0.00 0.00 0.00 0.00 0.00 0.00 0.00
0.00 0.00 0.00 0.00 0.00 0.00 0.00 0.00 0.00 0.01 0.01 0.01 0.02 0.04 0.05 0.04 0.03 0.02 0.00 0.01 0.02 0.01 0.04 0.02 0.01 0.00 0.00 0.00 0.00 0.00 0.00 0.00 0.00 0.00 0.00 0.00 0.00 0.00 0.00 0.00 0.00 0.00 0.00
0.00 0.00 0.00 0.00 0.00 0.00 0.00 0.00 0.00 0.01 0.02 0.03 0.04 0.06 0.04 0.03 0.02 0.01 0.00 0.01 0.02 0.02 0.01 0.00 0.00 0.00 0.00 0.00 0.00 0.00 0.00 0.00 0.00 0.00 0.00 0.00 0.00 0.00 0.00 0.00 0.00 0.00 0.00
0.00 0.00 0.00 0.00 0.00 0.00 0.00 0.00 0.01 0.02 0.02 0.02 0.03 0.04 0.05 0.02 0.01 0.00 0.00 0.04 0.02 0.00 0.00 0.00 0.00 0.00 0.00 0.00 0.00 0.00 0.00 0.00 0.00 0.00 0.00 0.00 0.00 0.00 0.00 0.00 0.00 0.00 0.00
0.00 0.00 0.00 0.00 0.00 0.00 0.00 0.00 0.01 0.03 0.04 0.05 0.05 0.07 0.11 0.04 0.00 0.00 0.00 0.02 0.02 0.00 0.00 0.00 0.00 0.00 0.00 0.00 0.00 0.00 0.00 0.00 0.00 0.00 0.00 0.00 0.00 0.00 0.00 0.00 0.00 0.00 0.00
0.00 0.00 0.00 0.00 0.00 0.00 0.01 0.00 0.02 0.06 0.06 0.09 0.10 0.13 0.15 0.14 0.06 0.01 0.02 0.03 0.01 0.00 0.00 0.00 0.00 0.00 0.00 0.00 0.00 0.00 0.00 0.00 0.00 0.00 0.00 0.00 0.00 0.00 0.00 0.00 0.00 0.00 0.00
0.00 0.00 0.00 0.00 0.00 0.00 0.01 0.02 0.04 0.09 0.09 0.07 0.10 0.16 0.16 0.10 0.07 0.05 0.03 0.05 0.02 0.00 0.01 0.00 0.00 0.00 0.00 0.00 0.00 0.00 0.00 0.00 0.00 0.00 0.00 0.00 0.00 0.00 0.00 0.00 0.00 0.00 0.00
0.00 0.00 0.00 0.01 0.01 0.00 0.01 0.01 0.05 0.11 0.10 0.10 0.10 0.11 0.14 0.14 0.13 0.13 0.08 0.06 0.02 0.00 0.00 0.00 0.00 0.00 0.00 0.00 0.00 0.00 0.00 0.00 0.00 0.00 0.00 0.00 0.00 0.00 0.00 0.00 0.00 0.00 0.00
0.00 0.00 0.00 0.01 0.01 0.00 0.00 0.01 0.04 0.06 0.07 0.04 0.02 0.02 0.03 0.05 0.06 0.07 0.06 0.04 0.02 0.01 0.00 0.00 0.00 0.00 0.00 0.00 0.00 0.00 0.00 0.00 0.00 0.00 0.00 0.00 0.00 0.00 0.00 0.00 0.00 0.00 0.00
0.00 0.00 0.00 0.00 0.01 0.02 0.01 0.01 0.04 0.03 0.03 0.04 0.05 0.05 0.04 0.05 0.04 0.03 0.04 0.04 0.01 0.01 0.00 0.00 0.00 0.00 0.00 0.00 0.00 0.00 0.00 0.00 0.00 0.00 0.00 0.00 0.00 0.00 0.00 0.00 0.00 0.00 0.00
0.00 0.00 0.00 0.00 0.01 0.01 0.02 0.03 0.01 0.04 0.05 0.06 0.06 0.05 0.04 0.03 0.03 0.02 0.04 0.06 0.06 0.02 0.00 0.01 0.00 0.00 0.00 0.00 0.00 0.00 0.00 0.00 0.00 0.00 0.00 0.00 0.00 0.00 0.00 0.00 0.00 0.00 0.00
0.00 0.00 0.00 0.00 0.00 0.01 0.02 0.04 0.04 0.03 0.03 0.06 0.12 0.08 0.03 0.02 0.05 0.10 0.13 0.13 0.10 0.08 0.04 0.01 0.00 0.00 0.00 0.00 0.00 0.00 0.00 0.00 0.00 0.00 0.00 0.00 0.00 0.00 0.00 0.00 0.00 0.00 0.00
0.00 0.00 0.00 0.00 0.00 0.00 0.01 0.02 0.04 0.04 0.05 0.07 0.10 0.12 0.06 0.02 0.04 0.06 0.10 0.19 0.16 0.10 0.07 0.05 0.00 0.00 0.00 0.00 0.00 0.00 0.00 0.00 0.00 0.00 0.00 0.00 0.00 0.00 0.00 0.00 0.00 0.00 0.00
0.00 0.00 0.00 0.00 0.00 0.00 0.01 0.00 0.01 0.02 0.07 0.13 0.13 0.11 0.06 0.02 0.02 0.02 0.05 0.08 0.06 0.05 0.02 0.01 0.00 0.00 0.00 0.00 0.00 0.00 0.00 0.00 0.00 0.00 0.00 0.00 0.00 0.00 0.00 0.00 0.00 0.00 0.00
0.00 0.00 0.00 0.00 0.00 0.00 0.00 0.00 0.00 0.00 0.01 0.03 0.03 0.01 0.00 0.00 0.01 0.01 0.02 0.01 0.00 0.01 0.00 0.00 0.00 0.00 0.00 0.00 0.00 0.00 0.00 0.00 0.00 0.00 0.00 0.00 0.00 0.00 0.00 0.00 0.00 0.00 0.00
0.00 0.00 0.00 0.00 0.00 0.00 0.00 0.01 0.01 0.00 0.00 0.00 0.01 0.01 0.00 0.00 0.01 0.01 0.00 0.00 0.00 0.00 0.00 0.00 0.00 0.00 0.00 0.00 0.00 0.00 0.00 0.00 0.00 0.00 0.00 0.00 0.00 0.00 0.00 0.00 0.00 0.00 0.00
0.00 0.00 0.00 0.00 0.00 0.00 0.00 0.00 0.01 0.00 0.00 0.00 0.00 0.00 0.00 0.00 0.00 0.00 0.00 0.00 0.00 0.00 0.00 0.00 0.00 0.00 0.00 0.00 0.00 0.00 0.00 0.00 0.00 0.00 0.00 0.00 0.00 0.00 0.00 0.00 0.00 0.00 0.00
0.00 0.00 0.00 0.00 0.00 0.00 0.00 0.00 0.00 0.00 0.00 0.00 0.00 0.00 0.00 0.00 0.00 0.00 0.00 0.00 0.00 0.00 0.00 0.00 0.00 0.00 0.00 0.00 0.00 0.00 0.00 0.00 0.00 0.00 0.00 0.00 0.00 0.00 0.00 0.00 0.00 0.00 0.00
0.00 0.00 0.00 0.00 0.00 0.00 0.00 0.00 0.00 0.00 0.00 0.00 0.00 0.00 0.00 0.00 0.00 0.00 0.00 0.00 0.00 0.00 0.00 0.00 0.00 0.00 0.00 0.00 0.00 0.00 0.00 0.00 0.00 0.00 0.00 0.00 0.00 0.00 0.00 0.01 0.01 0.01 0.01
0.00 0.00 0.00 0.00 0.00 0.00 0.00 0.00 0.00 0.00 0.00 0.00 0.00 0.00 0.00 0.00 0.00 0.00 0.00 0.00 0.00 0.00 0.00 0.00 0.00 0.00 0.00 0.00 0.00 0.00 0.00 0.00 0.00 0.00 0.00 0.00 0.00 0.00 0.00 0.00 0.00 0.00 0.00
MSLP
1004.65 1006.00 1006.34 1006.70 1006.40 1006.34 1007.11 1007.32 1007.18 1006.75 1006.41 1006.37 1006.22 1006.14 1006.27 1006.62 1006.74 1006.96 1007.20 1007.65 1008.15 1008.62 1008.83 1008.91 1009.08 1009.15 1009.31 1009.24 1009.05 1009.19 1009.16 1009.04 1009.11 1008.90 1009.41 1009.99 1010.53 1010.71 1010.86 1010.49 1010.40 1010.51 1010.87
1004.95 1005.54 1006.05 1006.07 1006.03 1005.93 1006.03 1006.08 1006.18 1006.10 1005.81 1005.91 1005.84 1005.89 1006.09 1006.27 1006.43 1006.72 1007.00 1007.28 1007.89 1008.40 1008.51 1008.70 1008.81 1008.95 1009.15 1009.21 1008.76 1008.82 1008.98 1008.73 1008.77 1008.82 1009.09 1009.50 1009.73 1010.21 1009.77 1009.89 1010.43 1009.98 1010.81
1005.45 1005.44 1005.52 1005.53 1005.61 1005.76 1005.88 1005.90 1005.84 1005.55 1005.31 1005.23 1005.36 1005.33 1005.61 1005.79 1006.24 1006.43 1006.74 1007.32 1007.74 1007.94 1008.22 1008.63 1008.88 1009.02 1009.08 1009.14 1008.55 1008.34 1008.50 1008.37 1008.39 1008.81 1009.09 1008.92 1009.26 1009.18 1009.50 1009.91 1010.24 1010.69 1010.72
1005.98 1005.94 1005.92 1006.03 1006.04 1005.96 1005.65 1005.11 1004.87 1004.71 1004.70 1004.71 1004.87 1004.94 1005.14 1005.42 1005.89 1006.31 1006.85 1007.25 1007.71 1007.96 1008.38 1008.65 1008.89 1009.10 1009.81 1008.96 1008.42 1008.31 1008.17 1008.41 1008.64 1008.99 1008.65 1009.44 1009.52 1009.66 1009.69 1010.48 1011.25 1010.98 1011.29
1006.41 1006.40 1006.23 1006.02 1005.77 1005.52 1005.31 1005.03 1004.75 1004.40 1004.20 1004.15 1004.40 1004.52 1004.67 1004.98 1005.37 1006.05 1006.53 1007.08 1007.66 1008.10 1008.39 1008.53 1008.53 1008.82 1009.48 1009.43 1008.51 1008.52 1008.58 1008.81 1009.02 1009.43 1009.66 1009.49 1010.33 1010.57 1010.89 1011.01 1011.31 1011.64 1011.89
1006.80 1006.71 1006.45 1006.16 1005.88 1005.50 1005.24 1005.00 1004.72 1004.57 1004.25 1004.12 1004.09 1004.10 1004.42 1004.61 1005.00 1005.70 1006.07 1006.88 1007.40 1007.92 1008.19 1008.33 1008.62 1009.25 1009.75 1009.69 1008.92 1008.75 1008.64 1008.92 1009.22 1009.70 1010.07 1010.58 1010.88 1011.21 1011.46 1011.72 1011.95 1012.18 1012.35
1006.77 1006.66 1006.48 1006.24 1005.94 1005.54 1005.12 1004.71 1004.57 1004.43 1004.30 1004.27 1004.16 1003.95 1004.10 1004.35 1004.75 1005.30 1005.82 1006.60 1006.93 1007.25 1007.58 1007.90 1007.78 1007.84 1008.76 1009.63 1009.74 1009.19 1008.97 1009.12 1009.11 1009.42 1010.16 1010.72 1011.00 1011.38 1011.56 1011.72 1011.95 1012.12 1012.21
1006.78 1006.72 1006.55 1006.16 1005.74 1005.35 1005.09 1004.80 1004.32 1004.06 1003.91 1003.76 1003.69 1003.75 1004.22 1004.53 1004.98 1005.44 1005.94 1006.20 1006.50 1006.87 1007.33 1007.60 1007.89 1007.96 1008.44 1008.76 1009.19 1009.52 1009.64 1009.85 1009.72 1009.48 1009.83 1010.24 1010.61 1010.96 1011.17 1011.39 1011.63 1011.86 1011.94
1007.23 1007.26 1006.95 1006.52 1006.02 1005.56 1005.03 1004.64 1004.25 1003.89 1003.56 1003.40 1003.36 1003.55 1003.89 1004.87 1005.31 1005.66 1005.83 1006.02 1006.34 1006.65 1007.11 1007.38 1007.73 1008.21 1008.77 1008.78 1008.75 1009.39 1010.22 1010.65 1010.44 1009.98 1009.89 1010.13 1010.31 1010.55 1010.96 1011.50 1011.73 1011.83 1011.82
1008.04 1007.78 1007.36 1006.87 1006.32 1005.69 1005.04 1004.55 1004.06 1003.84 1003.56 1003.20 1003.25 1003.14 1003.65 1004.67 1004.89 1005.37 1005.70 1005.81 1006.43 1006.98 1007.33 1007.63 1007.86 1008.41 1008.90 1008.82 1008.80 1009.37 1010.00 1010.60 1010.76 1010.92 1010.78 1010.83 1010.67 1010.85 1010.92 1011.30 1011.47 1011.76 1011.79
1008.24 1007.69 1007.14 1006.62 1005.98 1005.38 1004.85 1004.35 1004.01 1003.69 1003.49 1003.19 1003.22 1003.29 1003.49 1003.83 1004.85 1005.11 1005.58 1006.14 1006.12 1006.68 1007.34 1008.06 1008.42 1008.66 1009.02 1009.00 1009.10 1009.01 1009.74 1010.14 1010.57 1010.73 1010.59 1010.72 1010.70 1010.91 1011.06 1011.51 1011.78 1012.05 1012.19
1008.51 1007.98 1007.57 1007.02 1006.20 1005.46 1005.00 1004.33 1003.98 1003.67 1003.33 1003.07 1003.12 1003.61 1004.00 1004.51 1004.95 1005.47 1006.13 1006.21 1005.97 1006.15 1007.13 1007.96 1008.66 1009.14 1009.38 1009.27 1009.40 1009.59 1009.64 1010.01 1009.99 1010.09 1010.32 1010.46 1010.39 1010.99 1011.21 1011.81 1012.09 1012.16 1012.35
1008.89 1008.40 1008.23 1007.63 1007.10 1006.56 1005.68 1004.53 1003.75 1003.37 1003.14 1003.24 1003.57 1004.35 1005.15 1005.37 1006.00 1006.42 1006.55 1006.52 1006.28 1006.39 1007.03 1008.25 1009.13 1009.55 1009.61 1009.72 1009.70 1009.78 1010.03 1010.13 1009.94 1009.78 1010.24 1010.54 1010.69 1010.91 1011.42 1011.71 1011.84 1011.92 1012.21
1009.20 1008.82 1008.49 1008.17 1007.77 1007.46 1006.67 1005.77 1004.54 1003.62 1003.63 1003.99 1004.57 1005.52 1006.17 1006.65 1006.82 1007.21 1007.20 1007.66 1007.13 1007.55 1008.03 1008.53 1009.47 1009.61 1009.66 1009.80 1010.01 1009.96 1009.96 1009.96 1010.13 1009.98 1010.39 1010.73 1010.83 1011.11 1011.41 1011.64 1011.99 1011.86 1012.34
1009.11 1008.77 1009.04 1009.06 1008.55 1008.07 1007.95 1007.59 1006.63 1006.05 1005.17 1005.01 1005.53 1005.98 1006.52 1007.30 1007.68 1007.82 1007.47 1007.79 1008.03 1007.77 1008.54 1008.97 1009.29 1009.54 1009.52 1010.01 1010.43 1009.98 1010.32 1010.29 1010.39 1010.42 1010.80 1010.86 1010.99 1011.17 1011.40 1011.59 1011.89 1012.00 1012.26
1008.81 1008.92 1009.77 1009.73 1009.41 1009.07 1008.68 1008.38 1008.32 1007.61 1007.21 1007.14 1007.11 1007.18 1008.01 1008.44 1008.42 1008.04 1008.27 1008.55 1008.83 1008.81 1008.85 1009.39 1009.21 1009.15 1009.61 1009.53 1010.10 1010.06 1010.48 1010.60 1010.48 1010.85 1011.12 1010.96 1010.98 1011.02 1011.34 1011.70 1011.93 1012.20 1012.29
1008.84 1009.43 1009.75 1010.15 1010.12 1009.94 1009.73 1009.60 1009.50 1009.18 1008.87 1009.16 1009.38 1009.47 1009.48 1009.50 1009.31 1009.02 1008.91 1009.05 1009.42 1009.55 1009.70 1009.75 1009.14 1008.81 1008.83 1009.47 1009.60 1009.72 1010.41 1010.74 1010.78 1011.12 1011.07 1011.03 1011.09 1011.14 1011.44 1011.62 1011.77 1011.96 1012.05
1009.18 1009.24 1009.58 1009.98 1010.51 1010.71 1010.53 1010.49 1010.62 1010.72 1010.78 1010.94 1010.96 1010.93 1010.80 1010.63 1010.39 1010.42 1010.46 1010.17 1010.20 1010.12 1009.99 1009.37 1008.81 1008.80 1008.96 1009.28 1009.52 1009.89 1010.14 1010.62 1010.90 1010.89 1010.96 1011.06 1010.98 1011.05 1011.30 1011.41 1011.48 1011.54 1011.72
1008.83 1009.18 1009.43 1009.92 1010.47 1010.77 1010.97 1011.18 1011.17 1011.21 1011.44 1011.59 1011.67 1011.64 1011.76 1011.73 1011.64 1011.69 1011.88 1012.02 1011.91 1011.34 1010.62 1010.20 1009.49 1009.20 1009.26 1009.27 1009.50 1009.75 1010.08 1010.74 1010.97 1010.92 1010.92 1011.02 1010.94 1010.97 1011.15 1011.25 1011.27 1011.51 1011.60
1009.14 1009.19 1009.19 1009.29 1009.81 1010.18 1010.48 1010.76 1011.24 1011.23 1011.41 1011.86 1011.82 1011.81 1011.65 1011.82 1011.67 1011.66 1011.57 1011.55 1011.38 1010.67 1010.25 1009.61 1009.03 1008.81 1008.90 1009.32 1009.53 1009.60 1009.91 1010.47 1010.69 1010.76 1010.84 1010.82 1010.82 1010.92 1011.07 1011.02 1011.15 1011.28 1011.48
1008.84 1008.89 1008.90 1008.92 1009.01 1009.17 1009.32 1009.49 1010.16 1010.74 1011.11 1011.12 1011.14 1011.05 1011.04 1011.11 1011.18 1011.05 1010.85 1010.43 1010.17 1009.80 1009.25 1008.96 1008.81 1008.74 1008.97 1009.11 1009.16 1009.39 1009.54 1009.67 1010.02 1010.23 1010.28 1010.53 1010.70 1010.89 1010.88 1010.90 1011.01 1011.02 1011.02
1008.28 1008.42 1008.77 1008.75 1008.67 1008.75 1008.82 1009.10 1009.32 1009.71 1009.94 1010.26 1010.43 1010.44 1010.63 1010.79 1010.65 1010.43 1010.33 1010.15 1009.84 1009.45 1008.87 1008.74 1008.73 1008.73 1008.73 1008.91 1009.11 1009.26 1009.60 1009.51 1009.90 1010.12 1010.28 1010.39 1010.53 1010.59 1010.61 1010.70 1010.74 1010.89 1010.90
1007.59 1007.91 1007.99 1008.07 1008.08 1008.17 1008.35 1008.24 1008.71 1008.95 1009.26 1009.47 1009.75 1009.77 1009.99 1010.00 1009.82 1009.39 1009.06 1008.99 1008.89 1008.59 1008.33 1008.37 1008.55 1008.58 1008.66 1008.78 1008.85 1009.13 1009.17 1009.50 1009.78 1009.95 1010.07 1010.29 1010.47 1010.60 1010.72 1010.58 1010.57 1010.64 1010.61
1007.16 1007.17 1007.39 1007.53 1007.86 1007.78 1007.78 1008.01 1008.23 1008.33 1008.43 1008.64 1008.78 1008.89 1008.98 1008.72 1008.85 1008.40 1008.03 1008.05 1008.13 1008.10 1008.17 1008.28 1008.43 1008.54 1008.60 1008.80 1008.83 1008.94 1009.11 1009.66 1009.66 1009.95 1010.17 1010.23 1010.38 1010.21 1010.34 1010.25 1010.19 1010.26 1010.30
1006.72 1006.61 1007.01 1007.27 1007.51 1007.46 1007.67 1007.53 1007.66 1007.83 1007.93 1007.94 1007.92 1007.86 1007.90 1007.94 1008.04 1008.08 1007.95 1008.04 1008.15 1008.27 1008.19 1008.37 1008.29 1008.45 1008.64 1008.75 1008.89 1009.50 1009.90 1009.81 1010.04 1010.17 1009.93 1010.15 1010.26 1010.26 1010.15 1009.93 1009.87 1009.87 1009.74
1006.18 1006.40 1006.87 1007.26 1007.31 1007.21 1007.22 1007.31 1007.20 1007.29 1007.39 1007.37 1007.51 1007.71 1007.67 1007.85 1007.96 1007.93 1007.76 1007.79 1007.79 1007.95 1008.06 1008.10 1008.23 1008.18 1008.37 1008.89 1009.33 1010.06 1010.25 1010.34 1010.41 1010.60 1010.44 1010.38 1010.29 1010.16 1009.89 1009.47 1009.39 1009.17 1008.96
Thickness
5857 5842 5837 5834 5838 5837 5828 5821 5824 5830 5832 5832 5832 5828 5824 5821 5819 5814 5809 5803 5797 5791 5788 5784 5782 5781 5776 5773 5772 5768 5770 5770 5764 5770 5763 5762 5759 5764 5758 5765 5765 5766 5766
5848 5841 5833 5832 5832 5829 5826 5827 5827 5826 5830 5827 5824 5822 5818 5814 5812 5808 5803 5799 5790 5783 5782 5778 5775 5773 5767 5761 5760 5761 5763 5768 5762 5756 5757 5755 5757 5755 5763 5763 5757 5763 5759
5838 5836 5833 5830 5826 5821 5820 5820 5820 5821 5822 5822 5817 5813 5811 5809 5804 5801 5796 5789 5784 5780 5775 5769 5764 5760 5756 5753 5755 5759 5760 5764 5762 5752 5747 5753 5752 5755 5755 5751 5751 5748 5752
5824 5823 5820 5816 5814 5813 5816 5819 5819 5819 5816 5814 5811 5807 5805 5805 5799 5792 5787 5780 5775 5771 5766 5761 5756 5749 5738 5746 5752 5752 5757 5753 5750 5746 5745 5742 5742 5740 5743 5738 5733 5739 5738
5811 5809 5808 5809 5809 5809 5808 5808 5809 5810 5810 5808 5803 5800 5797 5798 5794 5785 5779 5772 5765 5760 5757 5753 5751 5743 5732 5735 5745 5745 5745 5742 5738 5734 5729 5727 5724 5723 5722 5725 5723 5723 5722
5795 5794 5795 5795 5796 5796 5796 5795 5795 5795 5797 5796 5794 5792 5787 5788 5787 5780 5774 5765 5759 5754 5748 5746 5742 5729 5722 5727 5736 5740 5741 5735 5730 5727 5724 5718 5716 5714 5712 5711 5709 5708 5706
5784 5783 5782 5781 5782 5783 5785 5786 5784 5782 5783 5781 5781 5782 5780 5778 5775 5771 5767 5760 5755 5751 5748 5743 5743 5742 5733 5727 5726 5730 5732 5730 5731 5726 5718 5713 5710 5707 5706 5704 5703 5702 5702
5771 5770 5769 5770 5772 5773 5771 5770 5775 5775 5774 5775 5774 5774 5768 5764 5762 5756 5752 5752 5748 5745 5740 5738 5735 5732 5729 5726 5723 5721 5719 5718 5720 5723 5719 5715 5711 5709 5707 5704 5701 5700 5700
5755 5752 5752 5753 5754 5756 5758 5759 5761 5764 5764 5766 5766 5761 5758 5749 5746 5741 5740 5739 5736 5735 5732 5730 5729 5723 5717 5717 5719 5713 5706 5703 5706 5712 5713 5711 5710 5708 5703 5699 5695 5695 5693
5736 5735 5736 5737 5738 5742 5747 5749 5750 5750 5750 5752 5751 5751 5747 5738 5737 5731 5728 5729 5722 5719 5717 5717 5717 5713 5707 5708 5711 5706 5696 5695 5697 5697 5699 5698 5700 5699 5697 5694 5691 5689 5689
5723 5726 5728 5729 5731 5735 5738 5740 5739 5737 5737 5737 5736 5736 5734 5733 5724 5720 5716 5713 5713 5710 5705 5699 5699 5699 5698 5700 5699 5702 5695 5695 5690 5690 5693 5692 5692 5691 5689 5685 5683 5681 5677
5710 5712 5712 5713 5719 5724 5725 5727 5727 5725 5725 5725 5724 5718 5716 5711 5707 5704 5698 5696 5700 5700 5694 5688 5684 5681 5683 5686 5687 5686 5686 5686 5689 5688 5687 5685 5686 5683 5681 5674 5671 5672 5668
5694 5695 5694 5697 5699 5701 5706 5714 5717 5717 5715 5711 5706 5699 5692 5691 5684 5679 5678 5679 5681 5682 5683 5673 5666 5663 5668 5670 5672 5674 5675 5676 5680 5681 5677 5677 5676 5675 5672 5667 5663 5662 5660
5678 5680 5681 5680 5682 5680 5682 5687 5698 5704 5698 5693 5684 5674 5669 5664 5663 5662 5659 5655 5661 5661 5659 5658 5653 5655 5659 5659 5659 5664 5666 5666 5667 5670 5667 5667 5667 5664 5660 5658 5653 5653 5648
5668 5671 5665 5662 5665 5665 5661 5658 5664 5664 5672 5673 5666 5659 5654 5648 5646 5646 5647 5643 5635 5642 5643 5643 5645 5645 5648 5647 5646 5653 5652 5655 5656 5657 5656 5655 5655 5654 5650 5647 5643 5641 5637
5661 5658 5647 5645 5647 5647 5646 5644 5639 5640 5641 5640 5637 5637 5630 5625 5625 5626 5621 5619 5617 5622 5629 5628 5633 5638 5635 5640 5638 5642 5638 5641 5643 5642 5642 5646 5645 5644 5639 5636 5633 5629 5626
5651 5642 5637 5630 5626 5626 5626 5622 5620 5618 5619 5612 5608 5605 5604 5602 5602 5605 5606 5606 5606 5610 5612 5614 5623 5631 5635 5633 5634 5634 5629 5629 5632 5631 5633 5634 5634 5632 5628 5626 5623 5620 5617
5638 5635 5630 5623 5614 5607 5605 5602 5600 5596 5591 5588 5584 5581 5581 5582 5585 5584 5584 5589 5590 5596 5598 5603 5613 5619 5621 5622 5623 5623 5623 5620 5621 5623 5623 5623 5624 5622 5618 5616 5614 5612 5609
5634 5628 5624 5615 5606 5597 5591 5585 5582 5580 5577 5573 5570 5567 5565 5564 5568 5568 5565 5564 5567 5574 5581 5585 5595 5601 5605 5611 5612 5613 5614 5612 5611 5614 5614 5612 5613 5612 5608 5607 5606 5600 5599
5623 5620 5617 5613 5605 5597 5590 5582 5575 5572 5565 5559 5559 5558 5560 5558 5564 5566 5563 5563 5564 5572 5579 5588 5595 5599 5603 5602 5604 5608 5609 5605 5604 5605 5603 5603 5602 5601 5598 5598 5595 5592 5590
5619 5615 5613 5609 5606 5601 5594 5590 5579 5569 5562 5561 5560 5560 5561 5562 5562 5563 5565 5568 5572 5576 5583 5587 5590 5595 5596 5599 5602 5603 5604 5604 5600 5598 5598 5595 5593 5590 5590 5589 5587 5586 5585
5616 5612 5606 5604 5603 5600 5597 5590 5585 5577 5572 5567 5564 5564 5558 5560 5561 5563 5566 5568 5572 5578 5584 5588 5592 5595 5599 5599 5598 5597 5594 5596 5592 5590 5589 5587 5584 5583 5581 5580 5580 5576 5575
5615 5610 5608 5605 5605 5601 5598 5599 5591 5588 5581 5576 5572 5573 5570 5569 5571 5576 5580 5581 5583 5589 5592 5593 5592 5593 5595 5595 5594 5592 5592 5589 5585 5584 5582 5578 5576 5573 5571 5570 5568 5565 5564
5613 5613 5608 5607 5602 5602 5601 5598 5595 5592 5591 5588 5586 5584 5583 5584 5583 5586 5589 5590 5591 5592 5593 5592 5592 5591 5591 5589 5588 5587 5585 5579 5579 5576 5573 5570 5568 5568 5564 5563 5561 5558 5556
5612 5614 5609 5606 5603 5603 5600 5601 5600 5596 5594 5594 5595 5595 5594 5591 5589 5588 5589 5589 5588 5587 5588 5587 5589 5588 5586 5585 5581 5576 5575 5575 5570 5568 5567 5564 5561 5558 5556 5555 5553 5550 5550
5613 5613 5609 5605 5604 5605 5603 5602 5603 5602 5600 5600 5598 5594 5593 5590 5588 5588 5590 5590 5589 5589 5587 5587 5585 5584 5582 5577 5573 5568 5565 5563 5560 5557 5555 5552 5550 5549 5549 5550 5548 5547 5547